Terminal Aerodrome Forecast
Issued by NWS Chicago, IL

Home | Current Version | Previous Version | Graphics & Text | Print | Product List | Glossary On
Versions: 1 2 3 4 5 6 7 8 9 10 11 12 13 14 15 16 17 18 19 20 21 22 23 24 25 26 27 28 29 30 31
000
FTUS43 KLOT 200500
TAFRFD
TAF
KRFD 200520Z 2006/2106 25009KT P6SM SCT080
     FM201400 31010KT P6SM SCT035
     FM201900 33012KT P6SM BKN035
     FM210200 35008KT P6SM BKN035=

USA.gov is the U.S. government's official web portal to all federal, state and local government web resources and services.